FREQUENCY,Transmission
 1061000000 ,-29.2839936023
 1061250000 ,-28.6633186166
 1061500000 ,-28.1606036498
 1061750000 ,-27.8303070948
 1062000000 ,-27.6941966104
 1062250000 ,-27.6044265569
 1062500000 ,-27.2966332584
 1062750000 ,-26.4268693366
 1063000000 ,-24.9710178682
 1063250000 ,-23.2684403636
 1063500000 ,-21.8302450712
 1063750000 ,-20.9141910345
 1064000000 ,-20.5449690448
 1064250000 ,-20.5553003374
 1064500000 ,-20.6830118957
 1064750000 ,-20.6144768128
 1065000000 ,-20.1969729779
 1065250000 ,-19.5868413853
 1065500000 ,-19.0683900587
 1065750000 ,-18.8189404933
 1066000000 ,-18.7016553018
 1066250000 ,-18.3448475088
 1066500000 ,-17.6180699511
 1066750000 ,-16.7309433048
 1067000000 ,-16.0956678301
 1067250000 ,-15.9073720246
 1067500000 ,-16.0459576538
 1067750000 ,-16.1447658253
 1068000000 ,-15.9164261654
 1068250000 ,-15.2869845155
 1068500000 ,-14.5068641664
 1068750000 ,-13.8061090008
 1069000000 ,-13.2848956063
 1069250000 ,-12.9338368179
 1069500000 ,-12.6872315684
 1069750000 ,-12.4612241438
 1070000000 ,-12.1937475943
 1070250000 ,-11.85485296
 1070500000 ,-11.4801171316
 1070750000 ,-11.0739538311
 1071000000 ,-10.6849201895
 1071250000 ,-10.2684511923
 1071500000 ,-9.80600393004
 1071750000 ,-9.28913326643
 1072000000 ,-8.77635481621
 1072250000 ,-8.32367717629
 1072500000 ,-7.922197246
 1072750000 ,-7.54946296864
 1073000000 ,-7.19282682917
 1073250000 ,-6.8596825954
 1073500000 ,-6.53420434158
 1073750000 ,-6.2203121987
 1074000000 ,-5.9248176215
 1074250000 ,-5.6490850468
 1074500000 ,-5.3830271189
 1074750000 ,-5.12898183992
 1075000000 ,-4.89094284839
 1075250000 ,-4.67374190701
 1075500000 ,-4.47520093788
 1075750000 ,-4.29331492361
 1076000000 ,-4.11576003409
 1076250000 ,-3.9446939095
 1076500000 ,-3.78908093293
 1076750000 ,-3.65800896925
 1077000000 ,-3.53830758767
 1077250000 ,-3.43561429047
 1077500000 ,-3.33393569615
 1077750000 ,-3.24188355668
 1078000000 ,-3.15194414787
 1078250000 ,-3.07249808831
 1078500000 ,-3.00211025743
 1078750000 ,-2.93806466929
 1079000000 ,-2.87458769404
 1079250000 ,-2.81813766104
 1079500000 ,-2.76152931547
 1079750000 ,-2.71228208236
 1080000000 ,-2.65970537256
 1080250000 ,-2.61952659631
 1080500000 ,-2.58176498854
 1080750000 ,-2.55192297538
 1081000000 ,-2.52109445441
 1081250000 ,-2.49525436357
 1081500000 ,-2.47660225245
 1081750000 ,-2.45843397553
 1082000000 ,-2.44740849609
 1082250000 ,-2.42676609647
 1082500000 ,-2.40879926767
 1082750000 ,-2.39394131328
 1083000000 ,-2.38581553408
 1083250000 ,-2.37471734002
 1083500000 ,-2.36556366548
 1083750000 ,-2.3628315405
 1084000000 ,-2.3641339853
 1084250000 ,-2.37170888052
 1084500000 ,-2.37258410273
 1084750000 ,-2.37575058821
 1085000000 ,-2.38089139139
 1085250000 ,-2.39187368987
 1085500000 ,-2.40703250623
 1085750000 ,-2.42529183517
 1086000000 ,-2.4387634122
 1086250000 ,-2.44895387543
 1086500000 ,-2.45486019077
 1086750000 ,-2.47503157124
 1087000000 ,-2.50299780362
 1087250000 ,-2.52457742776
 1087500000 ,-2.54210942829
 1087750000 ,-2.57008596726
 1088000000 ,-2.60157326704
 1088250000 ,-2.6386251667
 1088500000 ,-2.66403057413
 1088750000 ,-2.68900298151
 1089000000 ,-2.71530019094
 1089250000 ,-2.74250998814
 1089500000 ,-2.76326996437
 1089750000 ,-2.78418192018
 1090000000 ,-2.80886562853
 1090250000 ,-2.83811823764
 1090500000 ,-2.85750595718
 1090750000 ,-2.87432464162
 1091000000 ,-2.89512492358
 1091250000 ,-2.91255402004
 1091500000 ,-2.92339619373
 1091750000 ,-2.9257623171
 1092000000 ,-2.92417747716
 1092250000 ,-2.92675114519
 1092500000 ,-2.92629795275
 1092750000 ,-2.93268700366
 1093000000 ,-2.93512478978
 1093250000 ,-2.94462794255
 1093500000 ,-2.96228538668
 1093750000 ,-2.97878951746
 1094000000 ,-3.00526002123
 1094250000 ,-3.02728467136
 1094500000 ,-3.05491896618
 1094750000 ,-3.07594919737
 1095000000 ,-3.09786516169
 1095250000 ,-3.12392096681
 1095500000 ,-3.17276514133
 1095750000 ,-3.22181283317
 1096000000 ,-3.28269344033
 1096250000 ,-3.34433510975
 1096500000 ,-3.41734288426
 1096750000 ,-3.49848121171
 1097000000 ,-3.5820007094
 1097250000 ,-3.6815482624
 1097500000 ,-3.78106385936
 1097750000 ,-3.88874676568
 1098000000 ,-4.01289364715
 1098250000 ,-4.14672560504
 1098500000 ,-4.30140627007
 1098750000 ,-4.45849719569
 1099000000 ,-4.62031407285
 1099250000 ,-4.76882475707
 1099500000 ,-4.92372238915
 1099750000 ,-5.09393350462
 1100000000 ,-5.29147576191
 1100250000 ,-5.50900336837
 1100500000 ,-5.75879056324
 1100750000 ,-6.02694204613
 1101000000 ,-6.31480161775
 1101250000 ,-6.61369615748
 1101500000 ,-6.93731607549
 1101750000 ,-7.2865034324
 1102000000 ,-7.65736381417
 1102250000 ,-8.04279196494
 1102500000 ,-8.43509269432
 1102750000 ,-8.8414803184
 1103000000 ,-9.26800821466
 1103250000 ,-9.70569959228
 1103500000 ,-10.1544642685
 1103750000 ,-10.6032956879
 1104000000 ,-11.0555378784
 1104250000 ,-11.512406787
 1104500000 ,-11.9762704435
 1104750000 ,-12.4408457434
 1105000000 ,-12.9095878296
 1105250000 ,-13.3712455838
 1105500000 ,-13.8410725412
 1105750000 ,-14.3080397345
 1106000000 ,-14.7740251383
 1106250000 ,-15.2478424703
 1106500000 ,-15.7199805829
 1106750000 ,-16.203331002
 1107000000 ,-16.6869127132
 1107250000 ,-17.1652584113
 1107500000 ,-17.6415941074
 1107750000 ,-18.1100826187
 1108000000 ,-18.5826247402
 1108250000 ,-19.049098826
 1108500000 ,-19.5037787464
 1108750000 ,-19.9715082931
 1109000000 ,-20.4361611919
 1109250000 ,-20.9075922755
 1109500000 ,-21.3719117122
 1109750000 ,-21.8349115965
 1110000000 ,-22.3087708558
 1110250000 ,-22.7810470307
 1110500000 ,-23.257377425
 1110750000 ,-23.739206825
 1111000000 ,-24.2298377132
